Flag Weather past 2 weeks in Port Angeles, Washington, U.S.A.

Now
49 °F

Overcast.


Feels Like: 49 °F
Forecast: 49 / 55 °F
Wind: No wind

Location: William R. Fairchild International Airport

Current Time: Nov 26, 2014 at 9:36:32 AM

Latest Report: Nov 26, 2014 at 8:53 AM


Visibility: 10 mi

Pressure: 30.06 "Hg

Humidity: 93%

Dew point: 47 °F

Location of Port AngelesLocation

Historic Weather in Port Angeles — Graph

°F

Port Angeles temperature yesterday

Maximum temperature yesterday: 49 °F (at 1:53 AM)
Minimum temperature yesterday: 46 °F (at 1:53 PM)
Average temperature yesterday: 47 °F

Past Weeks' High & Low Weather Summary

 TemperatureHumidityPressure
High53 °F (Nov 23, 1:53 PM)97% (Nov 19, 2:53 AM)30.54 "Hg (Nov 19, 2:53 AM)
Low23 °F (Nov 13, 6:53 AM)24% (Nov 12, 10:53 AM)29.24 "Hg (Nov 21, 3:53 PM)
Average40 °F73%30.11 "Hg
* Reported Nov 11 7:53 AM — Nov 26 7:53 AM, Port Angeles, Weather by CustomWeather, © 2014

Note: Actual official high and low records may vary slightly from our data, if they occured in-between our weather recording intervals... More about our weather records

Advertising

Port Angeles weather history for previous 24 hours

 ConditionsComfort  
Time TempWeatherWind HumidityBarometerVisibility
7:53 AM
Nov 26
47 °FMostly cloudy.No wind93%30.08 "Hg10 mi
6:53 AM46 °FOvercast.No wind93%30.08 "Hg10 mi
5:53 AM43 °FFog.3 mph97%30.07 "Hg2 mi
4:57 AM46 °FFog.No wind93%30.08 "Hg3 mi
3:53 AM43 °FPassing clouds.No wind97%30.10 "Hg7 mi
3:03 AM44 °FPartly cloudy.No wind96%30.11 "Hg9 mi
2:53 AM44 °FFog.No wind93%30.12 "Hg2 mi
1:53 AM45 °FPassing clouds.No wind93%30.12 "Hg10 mi
12:53 AM46 °FPassing clouds.5 mph93%30.10 "Hg10 mi
11:53 PM
Nov 25
46 °FOvercast.No wind93%30.13 "Hg10 mi
10:59 PM46 °FFog.3 mph93%30.12 "Hg3 mi
9:53 PM46 °FLow clouds.5 mph93%30.12 "Hg7 mi
8:53 PM46 °FFog.No wind93%30.13 "Hg5 mi
7:53 PM46 °FFog.No wind93%30.14 "Hg6 mi
6:53 PM46 °FFog.No wind93%30.14 "Hg4 mi
5:53 PM46 °FLight rain. Fog.No wind93%30.16 "Hg2 mi
5:01 PM46 °FFog.5 mph93%30.16 "Hg3 mi
3:53 PM46 °FLight rain. Fog.8 mph93%30.18 "Hg1 mi
2:53 PM47 °FFog.5 mph93%30.19 "Hg4 mi
1:53 PM46 °FLight rain. Fog.7 mph93%30.20 "Hg3 mi
12:53 PM47 °FLight rain. Fog.7 mph93%30.21 "Hg4 mi
11:53 AM47 °FLow clouds.7 mph93%30.21 "Hg7 mi
11:01 AM47 °FLight rain. Fog.6 mph93%30.22 "Hg3 mi
9:53 AM47 °FLight rain. Fog.3 mph97%30.24 "Hg1 mi
9:03 AM48 °FLight rain. Fog.3 mph93%30.22 "Hg1 mi
Weather by CustomWeather, © 2014

See weather overviewHow to use our weather pages